Flag for U.S.A. Weather past 2 weeks in Clearwater, Florida, U.S.A.

Now
87 °F

Broken clouds.


Feels Like: 97 °F
Forecast: 79 / 88 °F
Wind: 6 mph from Northeast

Location: St. Petersburg / Clearwater International Airport

Current Time: Sep 4, 2015 at 11:17:28 AM

Latest Report: Sep 4, 2015 at 10:53 AM


Visibility: 10 mi

Pressure: 30.00 "Hg

Humidity: 67%

Dew point: 75 °F

Location of ClearwaterLocation

Historic Weather in Clearwater — Graph

°F

Clearwater temperature yesterday

Maximum temperature yesterday: 91 °F (at 2:53 PM)
Minimum temperature yesterday: 77 °F (at 4:53 AM)
Average temperature yesterday: 84 °F

Past Weeks' High & Low Weather Summary

 TemperatureHumidityPressure
High94 °F (Aug 22, 2:53 PM)97% (Aug 30, 11:53 PM)30.10 "Hg (Aug 30, 11:53 PM)
Low74 °F (Aug 27, 7:53 AM)49% (Aug 26, 1:53 PM)29.87 "Hg (Aug 24, 7:53 PM)
Average83 °F80%29.98 "Hg
* Reported Aug 20 9:53 AM — Sep 4 9:53 AM, Clearwater, Weather by CustomWeather, © 2015

Note: Actual official high and low records may vary slightly from our data, if they occured in-between our weather recording intervals... More about our weather records

Advertising

Clearwater weather history for previous 24 hours

 ConditionsComfort  
Time TempWeatherWind HumidityBarometerVisibility
9:53 AM
Fri, Sep 4
87 °FBroken clouds.6 mph72%29.99 "Hg10 mi
8:53 AM84 °FScattered clouds.6 mph80%29.98 "Hg10 mi
7:53 AM80 °FClear.No wind87%29.97 "Hg10 mi
6:53 AM79 °FClear.5 mph88%29.96 "Hg10 mi
5:53 AM78 °FClear.No wind90%29.94 "Hg10 mi
4:53 AM80 °FClear.No wind85%29.94 "Hg10 mi
3:53 AM79 °FClear.No wind88%29.93 "Hg10 mi
2:53 AM81 °FClear.5 mph82%29.93 "Hg10 mi
1:53 AM80 °FClear.3 mph85%29.93 "Hg10 mi
12:53 AM80 °FClear.3 mph85%29.95 "Hg10 mi
11:53 PM
Thu, Sep 3
81 °FClear.5 mph82%29.95 "Hg10 mi
10:53 PM82 °FClear.6 mph79%29.95 "Hg10 mi
9:53 PM83 °FClear.No wind77%29.95 "Hg10 mi
8:53 PM83 °FClear.5 mph77%29.93 "Hg10 mi
7:53 PM84 °FSunny.7 mph74%29.92 "Hg10 mi
6:53 PM85 °FSunny.12 mph72%29.93 "Hg10 mi
5:53 PM89 °FPassing clouds.12 mph63%29.93 "Hg10 mi
4:53 PM89 °FPassing clouds.12 mph59%29.93 "Hg10 mi
3:53 PM91 °FSunny.7 mph57%29.94 "Hg10 mi
2:53 PM91 °FSunny.8 mph56%29.96 "Hg10 mi
1:53 PM90 °FScattered clouds.9 mph59%29.97 "Hg10 mi
12:53 PM90 °FScattered clouds.8 mph59%29.98 "Hg10 mi
11:53 AM90 °FScattered clouds.5 mph63%30.00 "Hg10 mi
Weather by CustomWeather, © 2015

See weather overviewHow to use our weather pages